Location: Charlottesville
(38.0290°N, 78.4770°W)
Time: 21:21:08
(UTC-04:00)

Envisat - Pass Details

Date: 16 October 2017
Orbit: 764 x 766 km, 98.2° (Epoch: 20 October)

Event Time Altitude Azimuth Distance (km) Brightness Sun altitude
Exits shadow 20:46:16 32° 12° (NNE) 1,295 4.1 -26.7°
Drops below altitude 10° 20:49:06 10° 357° (N) 2,308 5.6 -27.2°
Sets 20:51:26 0° 353° (N) 3,238 6.5 -27.7°
